Andalusia, AL

5:24 PM CST on November 22, 2017 (GMT -0600)
Andalusia

Weather History for K79J - March, 2013

Change the Weather History Date:

Tuesday, March 26, 2013

  Actual Average (KCEW) Record (KCEW)
Temperature  
Mean Temperature 44 °F -  
Max Temperature 55 °F 70 °F 84 °F (2007)
Min Temperature 34 °F 46 °F 28 °F (2008)
Degree Days  
Heating Degree Days 20    
Moisture  
Dew Point 24 °F    
Average Humidity 47    
Maximum Humidity 67    
Minimum Humidity 28    
Precipitation  
Precipitation 0.00 in - - ()
Sea Level Pressure  
Sea Level Pressure 30.26 in    
Wind  
Wind Speed 8 mph (NNW)    
Max Wind Speed 18 mph    
Max Gust Speed 28 mph    
Visibility 10 miles    
Events      
Averages and records for this station are not official NWS values.
T = Trace of Precipitation, MM = Missing Value Source: NWS Daily Summary

Daily Weather History Graph

Daily Weather History Graph

Search for Another Location

Airport or City:

Trip Planner

Search our weather history database for the weather conditions in past years. The results will help you decide how hot, cold, wet, or windy it might be!

Date:

Astronomy

Mar. 26, 2013 Rise Set
Actual Time 6:41 AM CDT 7:01 PM CDT
Civil Twilight 6:17 AM CDT 7:25 PM CDT
Nautical Twilight 5:48 AM CDT 7:53 PM CDT
Astronomical Twilight 5:20 AM CDT 8:22 PM CDT
Moon 6:36 PM CDT (3/26) 5:56 AM CDT (3/26)
Length of Visible Light 13h 08m
Length of Day
12h 19m
Waxing Gibbous, 99% of the Moon is Illuminated
Mar 26
Waxing Gibbous
Mar 27
Full
Apr 2
Last Quarter
Apr 10
New
Apr 18
First Quarter

Hourly Weather History & Observations

Time (CDT) Temp. Windchill Dew Point Humidity Pressure Visibility Wind Dir Wind Speed Gust Speed Precip Events Conditions
12:56 AM 39.9 °F 37.8 °F 21.9 °F 49% 30.20 in 10.0 mi NNW 3.5 mph - N/A   Clear
1:56 AM 37.9 °F 33.5 °F 23.0 °F 55% 30.19 in 10.0 mi NNW 5.8 mph - N/A   Clear
2:56 AM 37.9 °F 33.5 °F 23.0 °F 55% 30.20 in 10.0 mi NNW 5.8 mph - N/A   Clear
3:56 AM 37.0 °F 34.5 °F 24.1 °F 59% 30.20 in 10.0 mi WNW 3.5 mph - N/A   Clear
4:56 AM 35.1 °F 31.0 °F 24.1 °F 64% 30.22 in 10.0 mi West 4.6 mph - N/A   Clear
5:56 AM 35.1 °F 31.0 °F 24.1 °F 64% 30.23 in 10.0 mi WNW 4.6 mph - N/A   Clear
6:56 AM 34.0 °F 28.8 °F 24.1 °F 67% 30.26 in 10.0 mi WNW 5.8 mph - N/A   Clear
7:56 AM 37.0 °F 29.3 °F 25.0 °F 62% 30.28 in 10.0 mi NNW 11.5 mph - N/A   Clear
8:56 AM 41.0 °F 33.5 °F 24.1 °F 51% 30.29 in 10.0 mi NNW 13.8 mph 19.6 mph N/A   Clear
9:56 AM 45.0 °F 37.4 °F 23.0 °F 42% 30.29 in 10.0 mi North 18.4 mph 27.6 mph N/A   Partly Cloudy
10:56 AM 46.9 °F - 21.0 °F 36% 30.29 in 10.0 mi North 16.1 mph 20.7 mph N/A   Partly Cloudy
11:56 AM 48.9 °F - 21.9 °F 35% 30.28 in 10.0 mi NNW 13.8 mph 21.9 mph N/A   Clear
12:56 PM 51.1 °F - 21.9 °F 32% 30.27 in 10.0 mi North 13.8 mph 25.3 mph N/A   Clear
1:56 PM 53.1 °F - 21.9 °F 30% 30.25 in 10.0 mi North 17.3 mph 21.9 mph N/A   Partly Cloudy
2:56 PM 54.0 °F - 21.9 °F 29% 30.23 in 10.0 mi NNW 17.3 mph 24.2 mph N/A   Partly Cloudy
3:56 PM 55.0 °F - 21.9 °F 28% 30.23 in 10.0 mi North 13.8 mph 20.7 mph N/A   Partly Cloudy
4:56 PM 54.0 °F - 23.0 °F 30% 30.23 in 10.0 mi NNE 13.8 mph - N/A   Partly Cloudy
5:56 PM 52.0 °F - 23.0 °F 32% 30.25 in 10.0 mi North 11.5 mph 19.6 mph N/A   Clear
6:56 PM 48.9 °F - 23.0 °F 36% 30.28 in 10.0 mi North 11.5 mph - N/A   Clear
7:56 PM 46.0 °F 41.9 °F 24.1 °F 42% 30.30 in 10.0 mi North 8.1 mph - N/A   Clear
8:56 PM 43.0 °F 40.3 °F 26.1 °F 51% 30.32 in 10.0 mi North 4.6 mph - N/A   Clear
9:56 PM 42.1 °F 40.2 °F 26.1 °F 53% 30.34 in 10.0 mi North 3.5 mph - N/A   Clear
10:56 PM 41.0 °F - 26.1 °F 55% 30.35 in 10.0 mi Calm Calm - N/A   Clear
11:56 PM 37.0 °F - 27.0 °F 67% 30.36 in 10.0 mi Calm Calm - N/A   Clear